TimeAKDT,TemperatureF,Dew PointF,Humidity,Sea Level PressureIn,VisibilityMPH,Wind Direction,Wind SpeedMPH,Gust SpeedMPH,PrecipitationIn,Events,Conditions,WindDirDegrees,DateUTC
12:53 AM,27.0,23.0,85,29.50,10.0,Calm,Calm,-,N/A,,Clear,0,2012-03-27 08:53:00
1:53 AM,28.0,23.0,81,29.49,10.0,ENE,3.5,-,N/A,,Scattered Clouds,60,2012-03-27 09:53:00
2:53 AM,25.0,21.9,88,29.47,10.0,ESE,11.5,26.5,N/A,,Scattered Clouds,120,2012-03-27 10:53:00
3:53 AM,32.0,25.0,75,29.44,10.0,NE,8.1,-,N/A,,Overcast,50,2012-03-27 11:53:00
4:53 AM,30.9,26.1,82,29.41,10.0,ENE,13.8,-,N/A,,Mostly Cloudy,60,2012-03-27 12:53:00
5:53 AM,30.9,25.0,79,29.38,10.0,NE,11.5,-,N/A,,Mostly Cloudy,50,2012-03-27 13:53:00
6:53 AM,32.0,26.1,79,29.36,10.0,ENE,15.0,-,N/A,,Overcast,70,2012-03-27 14:53:00
7:53 AM,32.0,26.1,79,29.36,10.0,ENE,13.8,-,N/A,,Overcast,60,2012-03-27 15:53:00
8:53 AM,33.1,28.0,82,29.35,10.0,ENE,9.2,-,N/A,,Overcast,60,2012-03-27 16:53:00
9:53 AM,35.1,28.9,78,29.33,10.0,ENE,9.2,-,N/A,,Overcast,60,2012-03-27 17:53:00
10:53 AM,36.0,28.9,76,29.32,10.0,ENE,13.8,-,N/A,,Overcast,70,2012-03-27 18:53:00
11:53 AM,37.0,28.9,73,29.30,10.0,ENE,13.8,-,N/A,,Overcast,70,2012-03-27 19:53:00
12:53 PM,37.9,30.0,73,29.29,10.0,East,15.0,-,N/A,,Overcast,80,2012-03-27 20:53:00
1:53 PM,37.0,30.0,76,29.26,10.0,East,13.8,-,N/A,,Overcast,80,2012-03-27 21:53:00
2:53 PM,37.0,30.9,79,29.24,10.0,East,12.7,-,N/A,,Overcast,90,2012-03-27 22:53:00
3:53 PM,37.0,32.0,82,29.23,10.0,East,8.1,-,0.00,,Overcast,90,2012-03-27 23:53:00
4:53 PM,36.0,32.0,86,29.21,10.0,East,13.8,-,0.00,,Overcast,100,2012-03-28 00:53:00
5:53 PM,35.1,32.0,89,29.19,9.0,East,16.1,21.9,0.00,,Overcast,90,2012-03-28 01:53:00
6:53 PM,35.1,32.0,89,29.17,10.0,East,10.4,-,0.00,Rain,Light Rain,90,2012-03-28 02:53:00
7:53 PM,34.0,32.0,92,29.17,6.0,ENE,10.4,-,0.03,,Overcast,70,2012-03-28 03:53:00
8:53 PM,34.0,32.0,92,29.17,7.0,East,11.5,-,0.01,,Overcast,80,2012-03-28 04:53:00
9:53 PM,34.0,33.1,96,29.16,10.0,NE,4.6,-,0.02,,Overcast,50,2012-03-28 05:53:00
10:45 PM,33.8,33.8,100,29.15,10.0,NE,6.9,-,N/A,,Overcast,40,2012-03-28 06:45:00
10:53 PM,34.0,33.1,96,29.15,10.0,Variable,4.6,-,N/A,,Overcast,0,2012-03-28 06:53:00
11:01 PM,33.8,32.0,93,29.15,10.0,East,8.1,-,N/A,,Overcast,80,2012-03-28 07:01:00
11:24 PM,35.6,32.0,87,29.15,9.0,East,4.6,-,N/A,,Overcast,90,2012-03-28 07:24:00
11:53 PM,35.1,33.1,92,29.16,10.0,ENE,5.8,-,0.01,,Overcast,60,2012-03-28 07:53:00